EW5655 Weather Reports


time (UTC)temp
C
wind
direction
speed
KPH
gust
KPH
rain 1hr
cm
rain 24hr
cm
rain mn
cm
humidity
%
barometer
mb
20260906192047 35 234 12.9 20.9 0.00 0.00 0.00 31 1016.2
20260906191545 35 188 9.7 17.7 0.00 0.00 0.00 31 1016.3
20260906191045 34 186 6.4 19.3 0.00 0.00 0.00 32 1016.3
20260906190544 35 202 11.3 25.7 0.00 0.00 0.00 31 1016.5
20260906190047 35 150 9.7 17.7 0.00 0.00 0.00 32 1016.5
20260906185543 35 119 9.7 20.9 0.00 0.00 0.00 31 1016.6
20260906185040 34 191 4.8 19.3 0.00 0.00 0.00 32 1016.6
20260906184540 34 180 6.4 19.3 0.00 0.00 0.00 32 1016.7
20260906184040 34 227 8.0 19.3 0.00 0.00 0.00 32 1016.9
20260906183537 34 188 9.7 19.3 0.00 0.00 0.00 33 1016.9
20260906183036 33 252 9.7 16.1 0.00 0.00 0.00 33 1016.9
20260906182534 33 193 8.0 16.1 0.00 0.00 0.00 33 1017.1
20260906182034 33 222 8.0 20.9 0.00 0.00 0.00 33 1017.2
20260906181535 33 184 9.7 17.7 0.00 0.00 0.00 33 1017.3
20260906181031 33 200 11.3 19.3 0.00 0.00 0.00 34 1017.4
20260906180532 33 167 12.9 19.3 0.00 0.00 0.00 34 1017.5
20260906180030 33 194 11.3 19.3 0.00 0.00 0.00 34 1017.6
20260906175530 33 210 11.3 17.7 0.00 0.00 0.00 34 1017.6
20260906175029 33 190 6.4 22.5 0.00 0.00 0.00 34 1017.6
20260906174525 33 142 9.7 22.5 0.00 0.00 0.00 35 1017.8
20260906174025 32 242 9.7 17.7 0.00 0.00 0.00 35 1017.8
20260906173524 33 241 8.0 16.1 0.00 0.00 0.00 35 1017.8
20260906173022 33 170 6.4 17.7 0.00 0.00 0.00 35 1017.9
20260906172520 32 196 6.4 17.7 0.00 0.00 0.00 36 1017.9
20260906172019 32 175 6.4 17.7 0.00 0.00 0.00 36 1017.9
20260906171519 32 228 8.0 16.1 0.00 0.00 0.00 37 1018.0
20260906171018 32 238 9.7 17.7 0.00 0.00 0.00 37 1018.0
20260906170518 32 177 4.8 17.7 0.00 0.00 0.00 36 1018.1
20260906170034 32 173 8.0 14.5 0.00 0.00 0.00 38 1018.1
20260906165515 32 184 8.0 14.5 0.00 0.00 0.00 37 1018.1
20260906165012 32 157 4.8 14.5 0.00 0.00 0.00 37 1018.2
20260906164516 32 202 8.0 14.5 0.00 0.00 0.00 37 1018.1
20260906164010 32 196 6.4 12.9 0.00 0.00 0.00 37 1018.1
20260906163509 32 208 4.8 11.3 0.00 0.00 0.00 37 1018.1
20260906163008 31 172 4.8 11.3 0.00 0.00 0.00 37 1018.1
20260906162507 31 142 4.8 11.3 0.00 0.00 0.00 36 1018.1
20260906162005 31 142 4.8 9.7 0.00 0.00 0.00 37 1018.1
20260906161504 31 257 3.2 11.3 0.00 0.00 0.00 37 1018.0
20260906161002 31 210 3.2 11.3 0.00 0.00 0.00 38 1017.9
20260906160501 31 203 0.0 9.7 0.00 0.00 0.00 36 1017.8
20260906160100 31 186 1.6 9.7 0.00 0.00 0.00 37 1017.8
20260906155559 31 223 1.6 9.7 0.00 0.00 0.00 36 1017.8
20260906155057 31 159 4.8 9.7 0.00 0.00 0.00 37 1017.8
20260906154555 30 213 1.6 4.8 0.00 0.00 0.00 38 1017.8
20260906154054 30 104 1.6 8.0 0.00 0.00 0.00 39 1017.8
20260906153552 30 146 3.2 8.0 0.00 0.00 0.00 39 1017.8
20260906153051 30 201 3.2 9.7 0.00 0.00 0.00 39 1017.8
20260906152549 30 184 3.2 9.7 0.00 0.00 0.00 39 1017.8
20260906152048 30 146 1.6 11.3 0.00 0.00 0.00 40 1017.8
20260906151558 29 166 4.8 11.3 0.00 0.00 0.00 41 1017.8
20260906151045 29 162 4.8 9.7 0.00 0.00 0.00 41 1017.8
20260906150544 29 180 3.2 9.7 0.00 0.00 0.00 41 1017.8
20260906150042 29 76 1.6 9.7 0.00 0.00 0.00 42 1017.8
20260906145541 29 118 1.6 6.4 0.00 0.00 0.00 42 1017.9
20260906145039 28 39 0.0 6.4 0.00 0.00 0.00 44 1017.9
20260906144541 28 61 1.6 8.0 0.00 0.00 0.00 46 1017.9
20260906144036 28 53 3.2 11.3 0.00 0.00 0.00 46 1017.9
20260906143535 27 70 3.2 11.3 0.00 0.00 0.00 47 1017.9
20260906143035 27 69 3.2 9.7 0.00 0.00 0.00 48 1017.9
20260906142532 27 59 1.6 8.0 0.00 0.00 0.00 49 1017.8
20260906142036 26 44 4.8 8.0 0.00 0.00 0.00 50 1017.8
20260906141535 26 63 1.6 6.4 0.00 0.00 0.00 52 1017.8
20260906141031 25 50 0.0 3.2 0.00 0.00 0.00 54 1017.8
20260906140526 25 50 0.0 3.2 0.00 0.00 0.00 53 1017.8
20260906140034 25 50 0.0 3.2 0.00 0.00 0.00 53 1017.8
20260906135525 25 50 0.0 8.0 0.00 0.00 0.00 54 1017.8
20260906135023 25 50 1.6 8.0 0.00 0.00 0.00 54 1017.8
20260906134527 24 77 1.6 3.2 0.00 0.00 0.00 55 1017.7
20260906134023 24 48 0.0 4.8 0.00 0.00 0.00 56 1017.7
20260906133521 24 48 1.6 6.4 0.00 0.00 0.00 56 1017.6
20260906133022 23 44 1.6 8.0 0.00 0.00 0.00 56 1017.6
20260906132521 23 43 3.2 8.0 0.00 0.00 0.00 56 1017.6
20260906132020 23 63 1.6 4.8 0.00 0.00 0.00 56 1017.6
20260906131520 23 43 0.0 8.0 0.00 0.00 0.00 56 1017.6
20260906131019 23 51 3.2 8.0 0.00 0.00 0.00 57 1017.6
20260906130519 23 49 0.0 6.4 0.00 0.00 0.00 56 1017.5
20260906130021 23 49 1.6 6.4 0.00 0.00 0.00 56 1017.5
20260906125517 23 51 0.0 6.4 0.00 0.00 0.00 57 1017.5
20260906125016 23 51 1.6 6.4 0.00 0.00 0.00 57 1017.5
20260906124528 23 44 0.0 6.4 0.00 0.00 0.00 57 1017.5
20260906124017 23 44 1.6 8.0 0.00 0.00 0.00 57 1017.4
20260906123515 23 44 1.6 8.0 0.00 0.00 0.00 56 1017.4
20260906123030 23 38 3.2 8.0 0.00 0.00 0.00 56 1017.4
20260906122518 23 53 1.6 8.0 0.00 0.00 0.00 56 1017.4
20260906122015 23 55 1.6 8.0 0.00 0.00 0.00 56 1017.4
20260906121518 23 59 0.0 6.4 0.00 0.00 0.00 56 1017.4
20260906121014 23 56 3.2 6.4 0.00 0.00 0.00 57 1017.4
20260906120514 23 51 1.6 6.4 0.00 0.00 0.00 57 1017.5
20260906120014 23 74 0.0 4.8 0.00 0.00 0.00 57 1017.5
20260906115514 23 74 0.0 3.2 0.00 0.00 0.00 58 1017.5
20260906115013 23 74 0.0 3.2 0.00 0.00 0.00 58 1017.4
20260906114512 23 74 0.0 8.0 0.00 0.00 0.00 58 1017.4
20260906114011 23 74 1.6 9.7 0.00 0.00 0.00 57 1017.4
20260906113511 23 67 4.8 9.7 0.00 0.00 0.00 57 1017.5
20260906113013 23 113 1.6 6.4 0.00 0.00 0.00 58 1017.5
20260906112508 23 113 0.0 0.0 0.00 0.00 0.00 59 1017.4
20260906112008 23 114 0.0 0.0 0.00 0.00 0.00 60 1017.3
20260906111519 23 143 0.0 0.0 0.00 0.00 0.00 60 1017.3
20260906111007 23 217 0.0 0.0 0.00 0.00 0.00 60 1017.3
20260906110506 23 217 0.0 0.0 0.00 0.00 0.00 60 1017.2
20260906110005 23 217 0.0 1.6 0.00 0.00 0.00 59 1017.2
20260906105504 23 217 0.0 3.2 0.00 0.00 0.00 58 1017.1
20260906105004 23 217 0.0 3.2 0.00 0.00 0.00 57 1017.0
20260906104607 23 217 0.0 3.2 0.00 0.00 0.00 58 1017.1
20260906104004 24 217 0.0 3.2 0.00 0.00 0.00 57 1017.0
20260906103503 24 217 1.6 3.2 0.00 0.00 0.00 56 1017.0
20260906103003 24 211 1.6 9.7 0.00 0.00 0.00 56 1017.0
20260906102505 24 211 3.2 11.3 0.00 0.00 0.00 56 1016.9
20260906102003 24 261 6.4 11.3 0.00 0.00 0.00 55 1017.0
20260906101502 24 256 3.2 8.0 0.00 0.00 0.00 55 1016.9
20260906101003 24 248 4.8 8.0 0.00 0.00 0.00 55 1016.8
20260906100504 24 175 3.2 6.4 0.00 0.00 0.00 57 1016.8
20260906100003 23 175 0.0 0.0 0.00 0.00 0.00 58 1016.7
20260906095501 23 175 0.0 0.0 0.00 0.00 0.00 58 1016.6
20260906095001 23 175 0.0 0.0 0.00 0.00 0.00 58 1016.6
20260906094501 23 175 0.0 0.0 0.00 0.00 0.00 59 1016.6
20260906094001 23 175 0.0 0.0 0.00 0.00 0.00 59 1016.6
20260906093600 23 175 0.0 0.0 0.00 0.00 0.00 59 1016.7
20260906093100 23 175 0.0 0.0 0.00 0.00 0.00 58 1016.6
20260906092558 23 175 0.0 0.0 0.00 0.00 0.00 57 1016.6
20260906092058 24 175 0.0 0.0 0.00 0.00 0.00 57 1016.5
20260906091605 24 175 0.0 0.0 0.00 0.00 0.00 57 1016.5
20260906091100 24 175 0.0 0.0 0.00 0.00 0.00 57 1016.5
20260906090557 24 175 0.0 0.0 0.00 0.00 0.00 58 1016.5
20260906090056 24 175 0.0 0.0 0.00 0.00 0.00 57 1016.5
20260906085556 24 175 0.0 0.0 0.00 0.00 0.00 57 1016.5
20260906085055 24 175 0.0 0.0 0.00 0.00 0.00 57 1016.6
20260906084557 24 175 0.0 0.0 0.00 0.00 0.00 58 1016.6
20260906084055 24 175 0.0 0.0 0.00 0.00 0.00 56 1016.6
20260906083553 25 175 0.0 0.0 0.00 0.00 0.00 56 1016.6
20260906083052 25 175 0.0 1.6 0.00 0.00 0.00 54 1016.7
20260906082550 25 175 0.0 1.6 0.00 0.00 0.00 54 1016.7
20260906082052 25 175 0.0 3.2 0.00 0.00 0.00 52 1016.7
20260906081550 25 175 0.0 3.2 0.00 0.00 0.00 52 1016.7
20260906081050 25 175 0.0 6.4 0.00 0.00 0.00 52 1016.7
20260906080549 26 175 0.0 6.4 0.00 0.00 0.00 51 1016.8
20260906080049 25 167 0.0 6.4 0.00 0.00 0.00 51 1016.9
20260906075549 25 167 0.0 3.2 0.00 0.00 0.00 53 1016.9
20260906075048 25 167 0.0 3.2 0.00 0.00 0.00 54 1016.9
20260906074551 25 228 0.0 3.2 0.00 0.00 0.00 54 1016.9
20260906074047 25 228 0.0 0.0 0.00 0.00 0.00 54 1017.0
20260906073547 25 228 0.0 0.0 0.00 0.00 0.00 54 1017.0
20260906073047 25 228 0.0 0.0 0.00 0.00 0.00 54 1017.0
20260906072547 25 228 0.0 0.0 0.00 0.00 0.00 54 1017.0
20260906072046 25 228 0.0 0.0 0.00 0.00 0.00 54 1017.0
20260906071546 25 228 0.0 0.0 0.00 0.00 0.00 54 1017.0
20260906071045 25 228 0.0 0.0 0.00 0.00 0.00 53 1017.0
20260906070543 25 228 0.0 1.6 0.00 0.00 0.00 52 1017.1
20260906070042 26 228 0.0 1.6 0.00 0.00 0.00 51 1017.1
20260906065541 26 228 0.0 3.2 0.00 0.00 0.00 49 1017.1
20260906065041 26 228 0.0 6.4 0.00 0.00 0.00 49 1017.0
20260906064540 26 228 1.6 8.0 0.00 0.00 0.00 48 1017.1
20260906064040 26 276 3.2 8.0 0.00 0.00 0.00 48 1017.1
20260906063539 26 190 1.6 4.8 0.00 0.00 0.00 49 1017.1
20260906063039 26 190 0.0 0.0 0.00 0.00 0.00 48 1017.1
20260906062538 26 190 0.0 3.2 0.00 0.00 0.00 47 1017.1
20260906062037 26 190 0.0 3.2 0.00 0.00 0.00 46 1017.1
20260906061537 26 190 0.0 3.2 0.00 0.00 0.00 47 1017.1
20260906061035 27 190 0.0 1.6 0.00 0.00 0.00 45 1017.2
20260906060534 27 190 0.0 1.6 0.00 0.00 0.00 44 1017.2
20260906060033 27 190 0.0 3.2 0.00 0.00 0.00 43 1017.2
20260906055532 27 190 1.6 3.2 0.00 0.00 0.00 43 1017.2
20260906055031 27 190 0.0 3.2 0.00 0.00 0.00 44 1017.1
20260906054539 27 190 0.0 3.2 0.00 0.00 0.00 45 1017.2
20260906054031 27 190 0.0 3.2 0.00 0.00 0.00 45 1017.2
20260906053531 27 190 0.0 6.4 0.00 0.00 0.00 45 1017.2
20260906053031 27 223 3.2 6.4 0.00 0.00 0.00 45 1017.2
20260906052532 27 63 0.0 0.0 0.00 0.00 0.00 44 1017.0
20260906052031 27 63 0.0 1.6 0.00 0.00 0.00 44 1017.0
20260906051531 27 63 0.0 3.2 0.00 0.00 0.00 43 1017.0
20260906051031 27 63 0.0 3.2 0.00 0.00 0.00 43 1017.0
20260906050531 27 57 0.0 3.2 0.00 0.00 0.00 43 1016.9
20260906050033 27 57 0.0 3.2 0.00 0.00 0.00 42 1016.9
20260906045531 28 57 0.0 3.2 0.00 0.00 0.00 41 1016.9
20260906045030 28 57 0.0 6.4 0.00 0.00 0.00 41 1016.9
20260906044530 28 47 0.0 8.0 0.00 0.00 0.00 41 1016.9
20260906044032 28 61 1.6 8.0 0.00 0.00 0.00 41 1016.9
20260906043529 28 62 1.6 6.4 0.00 0.00 0.00 41 1016.9
20260906043032 28 62 0.0 6.4 0.00 0.00 0.00 40 1016.9
20260906042530 28 62 0.0 6.4 0.00 0.00 0.00 40 1016.9
20260906042029 28 62 0.0 8.0 0.00 0.00 0.00 41 1016.9
20260906041529 28 62 3.2 8.0 0.00 0.00 0.00 40 1016.9
20260906041030 28 62 0.0 6.4 0.00 0.00 0.00 40 1016.9
20260906040530 28 62 0.0 6.4 0.00 0.00 0.00 40 1016.9
20260906040029 28 67 0.0 3.2 0.00 0.00 0.00 40 1016.9
20260906035529 28 73 0.0 3.2 0.00 0.00 0.00 41 1016.8
20260906035028 29 73 0.0 3.2 0.00 0.00 0.00 40 1016.8
20260906034528 30 49 0.0 3.2 0.00 0.00 0.00 39 1016.8
20260906034029 30 38 0.0 11.3 0.00 0.00 0.00 38 1016.7
20260906033528 30 22 3.2 11.3 0.00 0.00 0.00 38 1016.7
20260906033028 30 10 1.6 6.4 0.00 0.00 0.00 38 1016.7
20260906032526 30 47 0.0 9.7 0.00 0.00 0.00 37 1016.7
20260906032026 30 9 1.6 12.9 0.00 0.00 0.00 37 1016.6
20260906031526 30 351 3.2 12.9 0.00 0.00 0.00 36 1016.6
20260906031024 30 4 1.6 8.0 0.00 0.00 0.00 36 1016.5
20260906030522 30 44 3.2 8.0 0.00 0.00 0.00 36 1016.5
20260906030023 30 349 1.6 8.0 0.00 0.00 0.00 36 1016.4
20260906025524 30 350 0.0 9.7 0.00 0.00 0.00 36 1016.4
20260906025022 30 15 0.0 12.9 0.00 0.00 0.00 36 1016.3
20260906024522 30 4 3.2 12.9 0.00 0.00 0.00 37 1016.2
20260906024022 30 4 0.0 0.0 0.00 0.00 0.00 38 1016.2
20260906023525 30 4 0.0 0.0 0.00 0.00 0.00 38 1016.1
20260906023024 30 4 0.0 3.2 0.00 0.00 0.00 37 1016.1
20260906022521 30 4 0.0 3.2 0.00 0.00 0.00 38 1016.1
20260906022023 30 4 1.6 3.2 0.00 0.00 0.00 37 1016.1
20260906021522 30 7 0.0 6.4 0.00 0.00 0.00 37 1016.0
20260906021027 30 355 0.0 11.3 0.00 0.00 0.00 37 1016.0
20260906020521 30 354 3.2 12.9 0.00 0.00 0.00 37 1016.1
20260906020021 30 350 3.2 12.9 0.00 0.00 0.00 37 1016.1
20260906015522 30 344 4.8 12.9 0.00 0.05 0.00 36 1016.0
20260906015021 31 316 4.8 12.9 0.00 0.05 0.00 35 1015.9
20260906014525 31 24 6.4 16.1 0.00 0.05 0.00 35 1015.9
20260906014024 31 358 4.8 17.7 0.00 0.05 0.00 34 1015.8
20260906013520 31 11 9.7 17.7 0.00 0.05 0.00 34 1015.8
20260906013029 31 338 8.0 16.1 0.00 0.05 0.00 33 1015.7
20260906012520 31 342 9.7 16.1 0.00 0.05 0.00 33 1015.8
20260906012024 32 3 3.2 12.9 0.00 0.05 0.00 33 1015.7
20260906011520 32 354 1.6 9.7 0.00 0.05 0.00 33 1015.6
20260906011019 32 286 1.6 9.7 0.00 0.05 0.00 33 1015.5
20260906010619 32 210 3.2 9.7 0.00 0.05 0.00 33 1015.4
20260906010019 32 227 3.2 9.7 0.00 0.05 0.00 33 1015.3
20260906005518 32 223 4.8 11.3 0.00 0.10 0.00 33 1015.3
20260906005018 32 261 4.8 11.3 0.00 0.10 0.00 33 1015.3
20260906004518 32 242 4.8 14.5 0.00 0.10 0.00 33 1015.2
20260906004021 32 222 6.4 14.5 0.00 0.10 0.00 33 1015.2
20260906003520 32 241 6.4 16.1 0.00 0.10 0.00 31 1015.2
20260906003018 33 175 6.4 16.1 0.00 0.10 0.00 32 1015.1
20260906002517 33 200 6.4 11.3 0.00 0.10 0.00 31 1015.2
20260906002018 33 180 3.2 11.3 0.00 0.10 0.00 30 1015.2
20260906001520 33 188 3.2 9.7 0.00 0.10 0.00 29 1015.2
20260906001017 33 223 4.8 9.7 0.00 0.10 0.00 29 1015.2
20260906000517 33 269 3.2 9.7 0.00 0.10 0.00 30 1015.2
20260906000035 33 245 4.8 9.7 0.00 0.10 0.00 30 1015.3
20260905235517 33 263 3.2 8.0 0.00 0.10 0.00 29 1015.2
20260905235018 33 263 4.8 9.7 0.00 0.10 0.00 29 1015.3
20260905234516 33 248 3.2 14.5 0.00 0.10 0.00 29 1015.2
20260905234016 33 281 9.7 14.5 0.00 0.10 0.00 29 1015.2
20260905233516 33 276 4.8 9.7 0.00 0.10 0.00 28 1015.1
20260905233016 34 217 1.6 9.7 0.00 0.10 0.00 27 1015.2
20260905232517 34 180 6.4 9.7 0.00 0.10 0.00 27 1015.3
20260905232016 35 153 0.0 8.0 0.00 0.10 0.00 27 1015.3
20260905231516 35 207 3.2 12.9 0.00 0.10 0.00 26 1015.3
20260905231015 35 161 4.8 11.3 0.00 0.10 0.00 26 1015.2
20260905230515 34 244 1.6 12.9 0.00 0.10 0.00 28 1015.3
20260905230014 34 216 9.7 14.5 0.00 0.10 0.00 27 1015.3
20260905225518 35 249 8.0 14.5 0.00 0.10 0.00 27 1015.3
20260905225013 35 265 3.2 8.0 0.00 0.10 0.00 27 1015.4
20260905224513 35 213 1.6 8.0 0.00 0.10 0.00 28 1015.4
20260905224012 35 182 3.2 8.0 0.00 0.10 0.00 27 1015.4
20260905223512 35 1 1.6 8.0 0.00 0.10 0.00 27 1015.4
20260905223011 34 203 1.6 6.4 0.00 0.10 0.00 29 1015.5
20260905222511 34 214 0.0 8.0 0.00 0.10 0.00 28 1015.6
20260905222011 35 180 3.2 8.0 0.00 0.10 0.00 27 1015.5
20260905221511 35 222 3.2 11.3 0.00 0.10 0.00 27 1015.6
20260905221011 35 158 3.2 12.9 0.00 0.10 0.00 28 1015.6
20260905220513 35 200 4.8 12.9 0.00 0.10 0.00 28 1015.5
20260905220012 35 239 6.4 14.5 0.00 0.10 0.00 28 1015.6
20260905215510 35 302 4.8 14.5 0.00 0.10 0.00 28 1015.6
20260905215012 35 263 8.0 14.5 0.00 0.10 0.00 28 1015.6
20260905214508 35 315 4.8 14.5 0.00 0.10 0.00 28 1015.6
20260905214008 34 249 3.2 9.7 0.00 0.10 0.00 30 1015.7
20260905213507 34 316 0.0 12.9 0.00 0.10 0.00 31 1015.8
20260905213006 33 221 3.2 12.9 0.00 0.10 0.00 30 1016.0
20260905212507 34 236 3.2 11.3 0.00 0.10 0.00 29 1016.1
20260905212004 35 165 4.8 12.9 0.00 0.10 0.00 29 1016.2
20260905211505 35 271 4.8 12.9 0.00 0.10 0.00 30 1016.3
20260905211003 35 296 8.0 12.9 0.00 0.10 0.00 30 1016.3
20260905210503 34 151 0.0 11.3 0.00 0.10 0.00 30 1016.5
20260905210002 35 334 4.8 14.5 0.00 0.10 0.00 30 1016.6
20260905205501 34 272 3.2 14.5 0.00 0.10 0.00 31 1016.7
20260905205103 33 157 1.6 14.5 0.00 0.10 0.00 30 1016.8
20260905204603 34 207 6.4 11.3 0.00 0.10 0.00 30 1016.9
20260905204059 35 132 1.6 11.3 0.00 0.10 0.00 29 1016.9
20260905203558 33 76 3.2 11.3 0.00 0.10 0.00 33 1017.0
20260905203057 33 157 1.6 11.3 0.00 0.10 0.00 31 1017.0
20260905202557 33 272 3.2 12.9 0.00 0.10 0.00 31 1017.1
20260905202056 33 235 8.0 12.9 0.00 0.10 0.00 30 1017.1
20260905201556 33 266 6.4 16.1 0.00 0.10 0.00 31 1017.1
20260905201055 33 267 4.8 16.1 0.00 0.10 0.00 33 1017.2
20260905200555 33 225 4.8 12.9 0.00 0.10 0.00 32 1017.3
20260905200055 33 310 6.4 14.5 0.00 0.10 0.00 33 1017.3
20260905195553 33 244 3.2 16.1 0.00 0.10 0.00 33 1017.5
20260905195051 33 205 4.8 12.9 0.00 0.10 0.00 34 1017.5
20260905194607 32 149 6.4 14.5 0.00 0.10 0.00 35 1017.5
20260905194051 33 236 9.7 14.5 0.00 0.10 0.00 36 1017.7
20260905193553 32 118 3.2 14.5 0.00 0.10 0.00 35 1017.7
20260905193050 32 165 8.0 14.5 0.00 0.10 0.00 36 1017.8
20260905192549 32 199 4.8 14.5 0.00 0.10 0.00 37 1017.9